Weather Roundup
Issued by NWS Chicago, IL

Home | Current Version | Previous Version | Graphics & Text | Print | Product List | Glossary On
Versions: 1 2 3 4 5 6 7 8 9 10 11 12 13 14 15 16 17 18 19 20 21 22 23 24 25 26 27 28 29 30 31 32 33 34 35 36 37 38 39 40 41 42 43 44 45 46 47 48 49 50
000
NZUS59 KLOT 020600
HRRLOT

CHICAGO AREA WEATHER ROUNDUP
NATIONAL WEATHER SERVICE CHICAGO/ROMEOVILLE IL
100 AM CDT THU OCT 02 2014

NOTE: "FAIR" INDICATES FEW OR NO CLOUDS BELOW 12,000 FEET WITH NO
SIGNIFICANT WEATHER AND/OR OBSTRUCTIONS TO VISIBILITY.

* THESE STATIONS ARE NOT UNDER NWS QUALITY CONTROL. THEY ALSO MAY NOT
  REPORT WEATHER SUCH AS PRECIPITATION OR FOG.

ILZ005-006-012>014-019>023-020700-
NORTHEAST ILLINOIS

CITY           SKY/WX    TMP DP  RH WIND       PRES   REMARKS
OHARE          CLOUDY    66  53  63 S8        29.89R
6HR MIN TEMP:  65; 6HR MAX TEMP:  67;

MIDWAY         NOT AVBL
AURORA         LGT RAIN  65  56  72 E7        29.88F
6HR MIN TEMP:  65; 6HR MAX TEMP:  69; 6HR PCP: TRACE;

LANSING*       LGT RAIN  64  53  67 SE8       29.90S
WAUKEGAN       NOT AVBL
DUPAGE AIRPORT CLOUDY    65  55  70 SE5       29.88S
6HR MIN TEMP:  65; 6HR MAX TEMP:  67; 6HR PCP: TRACE;

WHEELING       CLOUDY    65  54  67 S5        29.91R
6HR MIN TEMP:  63; 6HR MAX TEMP:  66;

NORTHERLY IS     N/A     65  55  70 SE9         N/A
$$

WIZ051-052-058>065-066-070>072-020700-
SOUTHEAST WISCONSIN

CITY           SKY/WX    TMP DP  RH WIND       PRES   REMARKS
MILWAUKEE      CLOUDY    63  53  70 S9        29.89F
6HR MIN TEMP:  59; 6HR MAX TEMP:  64;

RACINE*        CLOUDY    63  55  75 S13       29.91S
$$

INZ001>003-010>013-019-020-020700-
NORTHWEST INDIANA

CITY           SKY/WX    TMP DP  RH WIND       PRES   REMARKS
GARY*          NOT AVBL
MICHIGAN CITY* NOT AVBL
RENSSELAER*    NOT AVBL
$$

LMZ740>746-020700-
SOUTHERN LAKE MICHIGAN

STATION/POSITION TIME  SKY/WX   TEMP WIND        PRES    VSBY
                                AIR  DIR/SP/G
                 (UTC)          (F)  (DEG/KT/KT) (MB)    (MI)
HARRISON CRIB    0500            64  150/ 11/ 14   N/A
BURNHAM HARBOR   0600            65  160/  7/ 10   N/A
CALUMET HARBOR   0500            66  150/  9/ 11 1011.2F
BURNS HARBOR     NOT AVBL
MICHIGAN CITY    0500            64  110/ 13/ 16   N/A
$$

ABBREVIATIONS USED IN REMARKS
   TC - TEMPERATURE IN CELSIUS
  WCI - WIND CHILL INDEX
   HX - HEAT INDEX
  VSB - VISIBILITY
$$


USA.gov is the U.S. government's official web portal to all federal, state and local government web resources and services.